SCP
0 0 0 0 0 0 0 0 0 0 0 0 0 0 0 0 0 0 0 0 0 0
0 0 0 0 0 0 0 0 0 0 0 0 0 0 0 0 0 0 0 0 0 0
0 0 0 0 0 0 0 0 0 0 0 0 0 0 0 0 0 0 0 0 0 0
0 0 0 0 0 0 0 0 0 0 0 0 0 0 0 0 0 0 0 0 0 0
0 0 0 0 0 0 0 0 0 0 0 0 0 0 0 0 0 0 0 0 0 0
0 0 0 0 0 0 0 0 0 0 0 0 0 0 0 0 0 0 0 0 0 0
0 0 0 0 0 0 0 0 0 0 0 0 0 0 0 0 0 0 0 0 0 0
0 0 -0 0 0 0 0 0 0 0 0 0 0 0 0 0 0 0 0 0 0 0
0 -0 -0 0 0 -0 -0 -0 0 0 0 0 0 0 0 0 0 0 0 0 0 0
-0 -0 -0 -0 -0 -0 0 0 -0 -0 -0 0 0 0 0 0 0 0 0 0 0 0
-0 -0 -0 -0 -0 -0 -0 -0 -0 0 0 -0 0 0 0 0 0 0 0 0 0 0
-0 -0 -0 -0 -0 -0 -0 -0 -0 -0 -0 0 0 0 0 0 0 0 0 0 0 0
-0 -0 -0 -0 -0 -0 -0 -0 -0 -0 -0 0 0 0 0 0 0 0 0 0 0 0
-0 -0 -0 -0 -0 -0 -0 -0 -0 -0 -0 -0 0 0 -0 0 0 0 0 0 0 0
Wind_Speed_500mb
39 54 65 72 78 86 88 87 86 87 83 82 78 77 74 79 84 89 94 96 98 101
21 25 38 49 60 72 78 79 79 82 79 78 77 75 75 79 82 82 87 90 93 96
27 29 31 34 41 49 57 65 72 76 77 77 77 76 75 79 82 84 87 88 91 94
29 33 35 36 38 41 47 55 60 64 72 76 76 77 79 82 83 86 83 86 90 93
42 39 40 43 45 45 46 45 49 57 67 70 75 78 82 85 87 91 90 90 89 92
50 52 51 50 51 52 55 54 53 53 56 63 68 72 77 82 86 90 95 91 93 96
55 58 61 61 59 57 57 59 58 58 62 61 65 69 73 77 82 88 93 95 95 95
61 62 64 66 67 68 67 64 62 64 61 62 65 70 72 75 79 83 90 94 97 95
69 68 69 72 73 75 77 76 74 71 70 68 65 64 66 71 78 82 88 91 91 95
87 85 84 82 81 81 83 83 83 83 80 78 76 71 67 66 74 82 89 95 92 91
92 96 98 94 89 87 87 87 87 88 87 90 86 78 74 71 74 80 86 88 95 95
94 97 100 103 104 101 98 97 97 94 94 94 93 86 81 78 76 81 82 85 88 92
104 106 107 104 101 100 100 106 103 103 97 98 101 94 85 78 82 83 85 84 87 86
96 100 103 107 107 106 103 102 105 108 108 104 100 101 96 83 79 79 82 87 90 89
Wind_Direction_500mb
279 275 276 278 278 279 280 282 284 284 284 284 284 282 278 275 273 272 269 268 266 266
335 304 284 279 280 283 284 284 285 286 287 287 285 282 281 277 273 273 272 272 271 268
338 332 327 313 296 285 281 284 286 287 287 287 287 286 283 280 277 271 271 272 272 271
342 338 337 331 324 313 301 291 283 285 287 287 285 285 282 279 278 275 275 274 273 273
1 354 344 339 335 328 318 310 302 292 282 281 285 285 283 281 281 280 277 275 273 272
352 351 350 346 339 334 328 322 312 303 298 291 282 279 278 278 278 277 278 279 276 274
347 343 340 338 335 333 329 324 321 313 307 304 298 286 277 275 277 278 280 280 278 276
338 335 333 330 327 326 324 321 319 316 313 309 301 299 294 284 276 274 275 274 275 278
330 329 327 324 323 321 318 317 316 313 311 308 306 307 299 293 284 274 274 274 273 275
330 328 326 323 320 318 315 313 312 311 310 307 306 308 307 301 288 279 270 268 270 275
325 324 324 324 322 318 314 311 309 306 306 305 306 305 304 302 298 286 277 270 268 267
324 323 322 320 320 320 318 314 311 308 304 302 301 303 302 300 296 293 287 277 268 265
325 323 321 320 319 316 315 312 311 307 305 303 300 298 299 299 297 294 293 289 278 270
322 320 319 318 317 316 316 312 311 308 306 305 303 302 299 298 295 294 291 288 287 281
Wind_Speed_850mb
39 54 65 72 78 86 88 87 86 87 83 82 78 77 74 79 84 89 94 96 98 101
21 25 38 49 60 72 78 79 79 82 79 78 77 75 75 79 82 82 87 90 93 96
27 29 31 34 41 49 57 65 72 76 77 77 77 76 75 79 82 84 87 88 91 94
29 33 35 36 38 41 47 55 60 64 72 76 76 77 79 82 83 86 83 86 90 93
42 39 40 43 45 45 46 45 49 57 67 70 75 78 82 85 87 91 90 90 89 92
50 52 51 50 51 52 55 54 53 53 56 63 68 72 77 82 86 90 95 91 93 96
55 58 61 61 59 57 57 59 58 58 62 61 65 69 73 77 82 88 93 95 95 95
61 62 64 66 67 68 67 64 62 64 61 62 65 70 72 75 79 83 90 94 97 95
69 68 69 72 73 75 77 76 74 71 70 68 65 64 66 71 78 82 88 91 91 95
87 85 84 82 81 81 83 83 83 83 80 78 76 71 67 66 74 82 89 95 92 91
92 96 98 94 89 87 87 87 87 88 87 90 86 78 74 71 74 80 86 88 95 95
94 97 100 103 104 101 98 97 97 94 94 94 93 86 81 78 76 81 82 85 88 92
104 106 107 104 101 100 100 106 103 103 97 98 101 94 85 78 82 83 85 84 87 86
96 100 103 107 107 106 103 102 105 108 108 104 100 101 96 83 79 79 82 87 90 89
Wind_Direction_850mb
279 275 276 278 278 279 280 282 284 284 284 284 284 282 278 275 273 272 269 268 266 266
335 304 284 279 280 283 284 284 285 286 287 287 285 282 281 277 273 273 272 272 271 268
338 332 327 313 296 285 281 284 286 287 287 287 287 286 283 280 277 271 271 272 272 271
342 338 337 331 324 313 301 291 283 285 287 287 285 285 282 279 278 275 275 274 273 273
1 354 344 339 335 328 318 310 302 292 282 281 285 285 283 281 281 280 277 275 273 272
352 351 350 346 339 334 328 322 312 303 298 291 282 279 278 278 278 277 278 279 276 274
347 343 340 338 335 333 329 324 321 313 307 304 298 286 277 275 277 278 280 280 278 276
338 335 333 330 327 326 324 321 319 316 313 309 301 299 294 284 276 274 275 274 275 278
330 329 327 324 323 321 318 317 316 313 311 308 306 307 299 293 284 274 274 274 273 275
330 328 326 323 320 318 315 313 312 311 310 307 306 308 307 301 288 279 270 268 270 275
325 324 324 324 322 318 314 311 309 306 306 305 306 305 304 302 298 286 277 270 268 267
324 323 322 320 320 320 318 314 311 308 304 302 301 303 302 300 296 293 287 277 268 265
325 323 321 320 319 316 315 312 311 307 305 303 300 298 299 299 297 294 293 289 278 270
322 320 319 318 317 316 316 312 311 308 306 305 303 302 299 298 295 294 291 288 287 281